When you browse on this site, cookies collect data to enhance your experience and personalize the content and advertising you see.
Visit our Privacy Policy to learn more. By continuing to use the site, you agree to this use of cookies and data.

Meteo pe oră la Saint-Herblain

Astăzi, 9 Iulie, Joi

Timp Temperatura Precipitaţii Vânt Presiune Umiditate
00:00 +18°C° 0 mm 1 m/s 761 mmHg 93%
01:00 +18°C° 0 mm 1 m/s 760 mmHg 94%
02:00 +18°C° 0 mm 1 m/s 760 mmHg 94%
03:00 +18°C° 0 mm 1 m/s 759 mmHg 95%
04:00 +16°C° 0 mm 0 m/s 759 mmHg 93%
05:00 +17°C° 0 mm 0 m/s 759 mmHg 92%
06:00 +18°C° 0 mm 0 m/s 759 mmHg 90%
07:00 +21°C° 0 mm 1 m/s 760 mmHg 83%
08:00 +23°C° 0 mm 2 m/s 760 mmHg 76%
09:00 +25°C° 0 mm 3 m/s 760 mmHg 68%
10:00 +25°C° 0 mm 3 m/s 760 mmHg 65%
11:00 +26°C° 0 mm 4 m/s 760 mmHg 62%
12:00 +26°C° 0 mm 5 m/s 760 mmHg 59%
13:00 +26°C° 0 mm 5 m/s 759 mmHg 60%
14:00 +26°C° 0 mm 5 m/s 759 mmHg 61%
15:00 +25°C° 0 mm 5 m/s 759 mmHg 63%
16:00 +23°C° 0 mm 5 m/s 759 mmHg 66%
17:00 +23°C° 0 mm 5 m/s 758 mmHg 70%
18:00 +22°C° 0 mm 5 m/s 758 mmHg 73%
19:00 +20°C° 0 mm 4 m/s 759 mmHg 79%
20:00 +19°C° 0 mm 4 m/s 759 mmHg 85%
21:00 +18°C° 0 mm 3 m/s 759 mmHg 92%
22:00 +18°C° 0 mm 3 m/s 759 mmHg 88%
23:00 +18°C° 0 mm 4 m/s 759 mmHg 85%

Mâine, 10 Iulie, Vineri

Timp Temperatura Precipitaţii Vânt Presiune Umiditate
00:00 +18°C° 0 mm 4 m/s 759 mmHg 82%
01:00 +18°C° 0 mm 3 m/s 759 mmHg 81%
02:00 +18°C° 0 mm 3 m/s 759 mmHg 80%
03:00 +18°C° 0 mm 3 m/s 759 mmHg 79%
04:00 +18°C° 0 mm 3 m/s 759 mmHg 80%
05:00 +18°C° 0 mm 3 m/s 759 mmHg 81%
06:00 +18°C° 0 mm 3 m/s 759 mmHg 82%
07:00 +18°C° 0 mm 3 m/s 759 mmHg 77%
08:00 +19°C° 0 mm 4 m/s 760 mmHg 72%
09:00 +19°C° 0 mm 4 m/s 760 mmHg 68%
10:00 +20°C° 0 mm 4 m/s 760 mmHg 65%
11:00 +21°C° 0 mm 3 m/s 761 mmHg 63%
12:00 +21°C° 0 mm 3 m/s 761 mmHg 61%
13:00 +22°C° 0 mm 4 m/s 761 mmHg 59%
14:00 +22°C° 0 mm 4 m/s 761 mmHg 58%
15:00 +23°C° 0 mm 5 m/s 761 mmHg 56%
16:00 +22°C° 0 mm 5 m/s 761 mmHg 57%
17:00 +21°C° 0 mm 5 m/s 761 mmHg 59%
18:00 +20°C° 0 mm 6 m/s 761 mmHg 60%
19:00 +17°C° 0 mm 5 m/s 762 mmHg 64%
20:00 +15°C° 0 mm 5 m/s 763 mmHg 69%
21:00 +13°C° 0 mm 5 m/s 763 mmHg 73%
22:00 +13°C° 0 mm 4 m/s 764 mmHg 75%
23:00 +12°C° 0 mm 4 m/s 764 mmHg 77%

Poimâine, 11 Iulie, Sâmbătă

Timp Temperatura Precipitaţii Vânt Presiune Umiditate
00:00 +11°C° 0 mm 4 m/s 764 mmHg 79%
01:00 +10°C° 0 mm 3 m/s 764 mmHg 82%
02:00 +10°C° 0 mm 3 m/s 765 mmHg 85%
03:00 +9°C° 0 mm 3 m/s 765 mmHg 88%
04:00 +10°C° 0 mm 3 m/s 765 mmHg 87%
05:00 +11°C° 0 mm 3 m/s 765 mmHg 85%
06:00 +11°C° 0 mm 3 m/s 765 mmHg 83%
07:00 +14°C° 0 mm 3 m/s 766 mmHg 75%
08:00 +17°C° 0 mm 4 m/s 766 mmHg 67%
09:00 +19°C° 0 mm 4 m/s 766 mmHg 60%
10:00 +20°C° 0 mm 4 m/s 766 mmHg 55%
11:00 +22°C° 0 mm 4 m/s 766 mmHg 51%
12:00 +23°C° 0 mm 5 m/s 766 mmHg 46%
13:00 +23°C° 0 mm 5 m/s 766 mmHg 46%
14:00 +23°C° 0 mm 5 m/s 766 mmHg 46%
15:00 +25°C° 0 mm 5 m/s 765 mmHg 45%
16:00 +23°C° 0 mm 5 m/s 765 mmHg 49%
17:00 +22°C° 0 mm 5 m/s 765 mmHg 52%
18:00 +22°C° 0 mm 5 m/s 765 mmHg 55%
19:00 +20°C° 0 mm 5 m/s 765 mmHg 61%
20:00 +17°C° 0 mm 5 m/s 766 mmHg 67%
21:00 +15°C° 0 mm 5 m/s 766 mmHg 73%
22:00 +14°C° 0 mm 4 m/s 766 mmHg 73%
23:00 +13°C° 0 mm 4 m/s 766 mmHg 73%

12 Iulie, Duminică

Timp Temperatura Precipitaţii Vânt Presiune Umiditate
00:00 +13°C° 0 mm 4 m/s 766 mmHg 73%
01:00 +12°C° 0 mm 4 m/s 766 mmHg 75%
02:00 +11°C° 0 mm 4 m/s 766 mmHg 77%
03:00 +11°C° 0 mm 4 m/s 765 mmHg 79%
04:00 +11°C° 0 mm 4 m/s 765 mmHg 79%
05:00 +12°C° 0 mm 5 m/s 765 mmHg 78%
06:00 +12°C° 0 mm 5 m/s 765 mmHg 77%
07:00 +14°C° 0 mm 5 m/s 766 mmHg 72%
08:00 +17°C° 0 mm 5 m/s 766 mmHg 66%
09:00 +20°C° 0 mm 5 m/s 766 mmHg 61%
10:00 +21°C° 0 mm 5 m/s 766 mmHg 56%
11:00 +22°C° 0 mm 5 m/s 765 mmHg 51%
12:00 +25°C° 0 mm 5 m/s 765 mmHg 46%
13:00 +25°C° 0 mm 5 m/s 765 mmHg 45%
14:00 +25°C° 0 mm 5 m/s 764 mmHg 43%
15:00 +26°C° 0 mm 6 m/s 764 mmHg 42%
16:00 +25°C° 0 mm 5 m/s 764 mmHg 45%
17:00 +25°C° 0 mm 5 m/s 764 mmHg 48%
18:00 +23°C° 0 mm 5 m/s 763 mmHg 51%
19:00 +21°C° 0 mm 4 m/s 764 mmHg 57%
20:00 +19°C° 0 mm 4 m/s 764 mmHg 62%
21:00 +17°C° 0 mm 4 m/s 764 mmHg 67%
22:00 +17°C° 0 mm 4 m/s 764 mmHg 72%
23:00 +15°C° 0 mm 4 m/s 764 mmHg 76%

13 Iulie, Luni

Timp Temperatura Precipitaţii Vânt Presiune Umiditate
00:00 +14°C° 0 mm 4 m/s 765 mmHg 81%
01:00 +13°C° 0 mm 4 m/s 764 mmHg 83%
02:00 +13°C° 0 mm 4 m/s 764 mmHg 84%
03:00 +13°C° 0 mm 4 m/s 763 mmHg 86%
04:00 +13°C° 0 mm 4 m/s 763 mmHg 83%
05:00 +14°C° 0 mm 4 m/s 763 mmHg 80%
06:00 +14°C° 0 mm 4 m/s 763 mmHg 78%
07:00 +18°C° 0 mm 4 m/s 763 mmHg 70%
08:00 +20°C° 0 mm 4 m/s 763 mmHg 63%
09:00 +22°C° 0 mm 4 m/s 763 mmHg 56%
10:00 +23°C° 0 mm 4 m/s 763 mmHg 52%
11:00 +26°C° 0 mm 4 m/s 763 mmHg 48%
12:00 +27°C° 0 mm 4 m/s 762 mmHg 43%
13:00 +27°C° 0 mm 4 m/s 762 mmHg 42%
14:00 +27°C° 0 mm 4 m/s 761 mmHg 41%
15:00 +28°C° 0 mm 4 m/s 761 mmHg 40%
16:00 +27°C° 0 mm 4 m/s 761 mmHg 44%
17:00 +26°C° 0 mm 3 m/s 761 mmHg 48%
18:00 +26°C° 0 mm 3 m/s 760 mmHg 52%
19:00 +23°C° 0 mm 4 m/s 760 mmHg 58%
20:00 +20°C° 0 mm 4 m/s 761 mmHg 65%
21:00 +17°C° 0 mm 5 m/s 761 mmHg 71%
22:00 +17°C° 0 mm 4 m/s 761 mmHg 77%
23:00 +15°C° 0 mm 4 m/s 760 mmHg 83%

14 Iulie, Marţi

Timp Temperatura Precipitaţii Vânt Presiune Umiditate
00:00 +14°C° 0 mm 3 m/s 760 mmHg 90%
01:00 +14°C° 0 mm 4 m/s 760 mmHg 88%
02:00 +14°C° 0 mm 4 m/s 760 mmHg 87%
03:00 +14°C° 0 mm 4 m/s 759 mmHg 85%
04:00 +14°C° 0 mm 4 m/s 759 mmHg 82%
05:00 +15°C° 0 mm 4 m/s 760 mmHg 78%
06:00 +15°C° 0 mm 5 m/s 760 mmHg 75%
07:00 +17°C° 0 mm 5 m/s 760 mmHg 70%
08:00 +19°C° 0 mm 5 m/s 760 mmHg 64%
09:00 +21°C° 0 mm 5 m/s 760 mmHg 59%
10:00 +22°C° 0 mm 5 m/s 760 mmHg 56%
11:00 +23°C° 0 mm 5 m/s 760 mmHg 53%
12:00 +25°C° 0 mm 5 m/s 760 mmHg 50%
13:00 +23°C° 0 mm 5 m/s 760 mmHg 51%
14:00 +23°C° 0 mm 6 m/s 760 mmHg 51%
15:00 +23°C° 0 mm 6 m/s 759 mmHg 52%
16:00 +22°C° 0 mm 6 m/s 760 mmHg 54%
17:00 +21°C° 0 mm 6 m/s 760 mmHg 57%
18:00 +20°C° 0 mm 6 m/s 760 mmHg 59%
19:00 +17°C° 0 mm 5 m/s 760 mmHg 66%
20:00 +17°C° 0 mm 4 m/s 760 mmHg 73%
21:00 +14°C° 0 mm 4 m/s 761 mmHg 80%
22:00 +13°C° 0 mm 3 m/s 761 mmHg 85%
23:00 +12°C° 0 mm 3 m/s 761 mmHg 90%
Arată mai mult